TimeHST,TemperatureF,Dew PointF,Humidity,Sea Level PressureIn,VisibilityMPH,Wind Direction,Wind SpeedMPH,Gust SpeedMPH,PrecipitationIn,Events,Conditions,WindDirDegrees,DateUTC
12:53 AM,66.0,60.1,81,29.99,10.0,Calm,Calm,-,N/A,,Overcast,0,2013-03-17 10:53:00
1:53 AM,66.0,60.1,81,29.98,10.0,Calm,Calm,-,N/A,,Overcast,0,2013-03-17 11:53:00
2:53 AM,66.9,61.0,81,29.96,10.0,South,4.6,-,N/A,,Overcast,190,2013-03-17 12:53:00
3:53 AM,66.0,62.1,87,29.96,10.0,SSW,3.5,-,0.00,,Overcast,210,2013-03-17 13:53:00
4:53 AM,66.0,62.1,87,29.97,10.0,South,3.5,-,N/A,,Overcast,190,2013-03-17 14:53:00
5:53 AM,66.0,61.0,84,29.97,10.0,Calm,Calm,-,N/A,,Overcast,0,2013-03-17 15:53:00
6:53 AM,66.0,61.0,84,29.99,10.0,WSW,5.8,-,N/A,,Overcast,250,2013-03-17 16:53:00
7:53 AM,66.9,61.0,81,30.01,10.0,West,4.6,-,N/A,,Overcast,260,2013-03-17 17:53:00
8:53 AM,66.9,61.0,81,30.02,10.0,NNW,10.4,-,N/A,,Overcast,340,2013-03-17 18:53:00
9:53 AM,69.1,60.1,73,30.03,10.0,NW,11.5,-,N/A,,Overcast,320,2013-03-17 19:53:00
10:53 AM,69.1,60.1,73,30.03,10.0,WNW,6.9,-,N/A,,Overcast,290,2013-03-17 20:53:00
11:53 AM,71.1,59.0,66,30.01,10.0,NNW,5.8,-,N/A,,Overcast,340,2013-03-17 21:53:00
12:53 PM,70.0,55.9,61,30.00,10.0,North,10.4,-,N/A,,Overcast,350,2013-03-17 22:53:00
1:53 PM,70.0,60.1,71,29.97,10.0,NNW,9.2,-,N/A,,Overcast,330,2013-03-17 23:53:00
2:53 PM,70.0,59.0,68,29.96,10.0,North,5.8,-,0.00,,Overcast,350,2013-03-18 00:53:00
3:53 PM,69.1,59.0,70,29.96,10.0,North,4.6,-,N/A,,Overcast,10,2013-03-18 01:53:00
4:53 PM,70.0,57.9,65,29.98,10.0,NE,8.1,-,N/A,,Overcast,50,2013-03-18 02:53:00
5:53 PM,68.0,60.8,78,29.99,10.0,Calm,Calm,-,0.00,,Overcast,0,2013-03-18 03:53:00
6:53 PM,68.0,60.8,78,29.99,10.0,WSW,4.6,-,N/A,,Overcast,240,2013-03-18 04:53:00
7:53 PM,68.0,61.0,78,30.00,10.0,WSW,4.6,-,N/A,,Overcast,240,2013-03-18 05:53:00
8:53 PM,68.0,60.1,76,30.03,10.0,SW,3.5,-,N/A,,Overcast,230,2013-03-18 06:53:00
9:53 PM,68.0,60.1,76,30.04,10.0,West,6.9,-,N/A,,Overcast,280,2013-03-18 07:53:00
10:53 PM,68.0,61.0,78,30.04,10.0,SW,3.5,-,N/A,,Overcast,220,2013-03-18 08:53:00
11:53 PM,66.2,60.8,83,30.03,10.0,WSW,3.5,-,N/A,,Overcast,250,2013-03-18 09:53:00